OPTUS 10

Last updated on Nov. 19, 2019, 4:25 a.m. UTC

1 40146U 14054A   19322.62744753 -.00000143  00000-0  00000+0 0  9992
2 40146   0.0726 102.0294 0004004 119.4040 217.8443  1.00269930 19039
UTC
Height (km)
Latitude
Longitude
Inclination
Orbital Period
UTC large
Height (km)
Speed (km/s)
/
Latitude / Longitude
Inclination (degrees)
Orbital Period (minutes)
Azimuth
Elevation
Range (km)
Doppler Factor
iOS Compass Heading
iOS Angle

Next 30 passes for location: Hong Kong

Rise time Rise Azimuth (degrees) Set time Set Azimuth (degrees) Duration Max altitude (degrees)

No matching passes for this satellites